Weather History for Lafayette, IN

Change the Weather History Date:

Thursday, August 9, 2012

  Actual Average Record
Temperature  
Mean Temperature 74 °F 74 °F  
Max Temperature 83 °F 84 °F 94 °F (1980)
Min Temperature 65 °F 64 °F 50 °F (1972)
Degree Days  
Heating Degree Days 0 0  
Month to date heating degree days 0 0  
Since 1 June heating degree days 20 23  
Since 1 July heating degree days 0 1  
Cooling Degree Days 9 9  
Month to date cooling degree days 110 81  
Year to date cooling degree days 1004 672  
Since 1 June cooling degree days 808 595  
Growing Degree Days 24 (Base 50)    
Moisture  
Dew Point 64 °F    
Average Humidity 74    
Maximum Humidity 93    
Minimum Humidity 55    
Precipitation  
Precipitation 0.36 in 0.10 in 3.10 in (1969)
Month to date precipitation 0.41 0.96  
Year to date precipitation 12.88 23.05  
Sea Level Pressure  
Sea Level Pressure 29.84 in    
Wind  
Wind Speed 3 mph (ENE)    
Max Wind Speed 20 mph    
Max Gust Speed 24 mph    
Visibility 10 miles    
Events Rain , Thunderstorm    
T = Trace of Precipitation, MM = Missing Value Source: NWS Daily Summary

Daily Weather History Graph

Daily Weather History Graph

Search for Another Location

Airport:

Trip Planner

Search our weather history database for the weather conditions in past years. The results will help you decide how hot, cold, wet, or windy it might be!

Date:

Astronomy

Aug. 09, 2012 Rise Set
Actual Time 6:53 AM EDT 8:52 PM EDT
Civil Twilight 6:23 AM EDT 9:22 PM EDT
Nautical Twilight 5:47 AM EDT 9:58 PM EDT
Astronomical Twilight 5:07 AM EDT 10:37 PM EDT
Moon 12:06 AM EDT (8/9) 2:36 PM EDT (8/9)
Length of Visible Light 14h 58m
Length of Day
13h 59m
Waning Gibbous, 51% of the Moon is Illuminated
Aug 9
Waning Gibbous
Aug 9
Last Quarter
Aug 17
New
Aug 24
First Quarter
Aug 31
Full

Hourly Weather History & Observations

Time (EDT) Temp. Heat Index Dew Point Humidity Pressure Visibility Wind Dir Wind Speed Gust Speed Precip Events Conditions
12:54 AM 71.1 °F - 63.0 °F 75% 29.89 in 10.0 mi East 4.6 mph - N/A   Mostly Cloudy
1:54 AM 70.0 °F - 63.0 °F 78% 29.89 in 10.0 mi ESE 4.6 mph - N/A   Clear
2:54 AM 69.1 °F - 62.1 °F 78% 29.89 in 10.0 mi Calm Calm - N/A   Partly Cloudy
3:54 AM 69.1 °F - 63.0 °F 81% 29.90 in 10.0 mi Calm Calm - N/A   Clear
4:54 AM 68.0 °F - 64.0 °F 87% 29.93 in 10.0 mi SW 8.1 mph - N/A   Partly Cloudy
5:01 AM 68.0 °F - 64.4 °F 88% 29.95 in 10.0 mi SW 9.2 mph - 0.00 in Rain , Thunderstorm Light Rain
5:18 AM 68.0 °F - 64.4 °F 88% 29.94 in 5.0 mi SSW 9.2 mph - N/A Rain , Thunderstorm Rain
5:26 AM 66.2 °F - 64.4 °F 94% 29.94 in 6.0 mi WSW 5.8 mph - N/A Rain Rain
5:54 AM 66.9 °F - 64.9 °F 93% 29.90 in 10.0 mi SSW 3.5 mph - N/A Rain , Thunderstorm Light Rain
6:08 AM 66.2 °F - 64.4 °F 94% 29.91 in 10.0 mi Calm Calm - N/A Rain Light Rain
6:54 AM 66.0 °F - 64.0 °F 93% 29.90 in 10.0 mi Calm Calm - N/A   Clear
7:54 AM 66.0 °F - 64.9 °F 96% 29.90 in 9.0 mi SE 4.6 mph - N/A   Mostly Cloudy
8:54 AM 68.0 °F - 64.0 °F 87% 29.88 in 10.0 mi Calm Calm - N/A   Mostly Cloudy
9:54 AM 68.0 °F - 64.9 °F 90% 29.88 in 10.0 mi Calm Calm - N/A   Mostly Cloudy
10:54 AM 68.0 °F - 64.9 °F 90% 29.88 in 10.0 mi Calm Calm - N/A   Overcast
11:54 AM 70.0 °F - 66.9 °F 90% 29.89 in 10.0 mi Calm Calm - N/A   Mostly Cloudy
12:54 PM 71.1 °F - 66.9 °F 87% 29.88 in 10.0 mi Calm Calm - 0.00 in   Mostly Cloudy
1:54 PM 73.9 °F - 66.0 °F 76% 29.86 in 10.0 mi Calm Calm - N/A   Scattered Clouds
2:54 PM 77.0 °F - 66.0 °F 69% 29.83 in 10.0 mi Calm Calm - N/A   Clear
3:54 PM 82.0 °F 83.8 °F 64.9 °F 56% 29.80 in 10.0 mi West 8.1 mph - N/A   Partly Cloudy
4:54 PM 81.0 °F 82.5 °F 64.0 °F 56% 29.78 in 10.0 mi Calm Calm - N/A   Partly Cloudy
5:54 PM 81.0 °F 82.5 °F 64.0 °F 56% 29.77 in 10.0 mi NNW 4.6 mph - N/A   Overcast
6:54 PM 80.1 °F 82.1 °F 66.0 °F 62% 29.77 in 10.0 mi Calm Calm - N/A   Mostly Cloudy
7:52 PM 78.8 °F - 64.4 °F 61% 29.75 in 10.0 mi NNE 8.1 mph - N/A Thunderstorm Mostly Cloudy
7:54 PM 78.1 °F - 66.0 °F 66% 29.74 in 10.0 mi NNE 11.5 mph - N/A Thunderstorm Mostly Cloudy
8:06 PM 78.8 °F - 66.2 °F 65% 29.76 in 10.0 mi North 10.4 mph - N/A Thunderstorm Mostly Cloudy
8:33 PM 73.4 °F - 60.8 °F 65% 29.77 in 10.0 mi South 4.6 mph - N/A Thunderstorm Thunderstorm
8:54 PM 71.1 °F - 62.1 °F 73% 29.77 in 10.0 mi ESE 6.9 mph - N/A Thunderstorm Overcast
9:03 PM 71.6 °F - 62.6 °F 73% 29.77 in 10.0 mi East 6.9 mph - N/A   Mostly Cloudy
9:13 PM 71.6 °F - 62.6 °F 73% 29.77 in 10.0 mi East 3.5 mph - N/A   Mostly Cloudy
9:34 PM 71.6 °F - 62.6 °F 73% 29.79 in 10.0 mi NNE 6.9 mph - N/A Thunderstorm Mostly Cloudy
9:54 PM 71.1 °F - 64.9 °F 81% 29.80 in 10.0 mi NNE 10.4 mph - 0.00 in Rain , Thunderstorm Light Thunderstorms and Rain
10:19 PM 69.8 °F - 64.4 °F 83% 29.81 in 10.0 mi NNE 12.7 mph - 0.00 in   Mostly Cloudy
10:54 PM 68.0 °F - 64.0 °F 87% 29.80 in 10.0 mi NE 10.4 mph 20.7 mph 0.00 in   Mostly Cloudy
11:01 PM 68.0 °F - 62.6 °F 83% 29.81 in 10.0 mi NE 10.4 mph - N/A   Mostly Cloudy
11:54 PM 66.9 °F - 62.1 °F 84% 29.78 in 10.0 mi ENE 5.8 mph - N/A   Overcast